Tracking 31027 objects as of 19-Jul-2025
HD Live streaming from Space Station
objects crossing your sky now

FENGYUN 1C DEB

Track FENGYUN 1C DEB now!
10-day predictions


NORAD ID: 31921
Int'l Code: 1999-025CLY
Perigee: 840.1 km
Apogee: 1,139.3 km
Inclination: 99.3 °
Period: 104.7 minutes
Semi major axis: 7360 km
RCS: 0.0067 m2 (small)
Launch date: May 10, 1999
Source: People's Republic of China (PRC)
Launch site: Taiyaun Space Center, China (TSC)

Note: This is SATELLITE DEBRIS
Your satellite tracking list
Your tracking list is empty




NASA's NSSDC Master Catalog

Two Line Element Set (TLE):
1 31921U 99025CLY 25199.14618557  .00000610  00000-0  59365-3 0  9992
2 31921  99.3468  94.5390 0203251 293.2099  64.7761 13.74749612902785
Source of the keplerian elements: AFSPC